Regional Weather Roundup
Issued by NWS Green Bay, WI

Home | Current Version | Previous Version | Text Only | Print | Product List | Glossary On
Versions: 1 2 3 4 5 6 7 8 9 10 11 12 13 14 15 16 17 18 19 20 21 22 23 24 25 26 27 28 29 30 31 32 33 34 35 36 37 38 39 40 41 42 43 44 45 46 47 48 49 50
000
ASUS43 KGRB 260510
RWRGRB

NORTH-CENTRAL AND NORTHEAST WISCONSIN REGIONAL WEATHER ROUNDUP
NATIONAL WEATHER SERVICE GREEN BAY WI
1200 AM CDT SUN APR 26 2015

WIZ005-009-010>012-018-019-260600-
NORTH CENTRAL WISCONSIN

CITY           SKY/WX    TMP DP  RH WIND       PRES   REMARKS
IRONWOOD       CLEAR     28  27  93 CALM      30.01R
MANITOWISH WTR CLEAR     32  21  64 N3        30.00R
ARBOR VITAE    CLEAR     37  19  49 CALM      30.00R
EAGLE RIVER    CLEAR     31  18  57 CALM      29.99S
LAND O LAKES   CLEAR     31  18  57 NE3       30.00S
RHINELANDER    CLEAR     35  21  56 CALM      29.99R
PHILLIPS       CLEAR     35  22  58 N5        29.99R
ANTIGO         CLEAR     32  26  78 NE3       29.98R
TOMAHAWK       CLEAR     37  21  53 CALM      30.00R
MERRILL        CLEAR     31  24  73 CALM      29.98S
$$

WIZ013-073-260600-
NORTHEAST WISCONSIN

CITY           SKY/WX    TMP DP  RH WIND       PRES   REMARKS
IRON MOUNTAIN  CLEAR     30  18  60 NW3       29.99R
MARINETTE      CLEAR     36  19  51 N9        29.98S
OCONTO         CLEAR     36  22  58 N5        29.98R
$$

WIZ017-030-035>037-045-260600-
CENTRAL WISCONSIN

CITY           SKY/WX    TMP DP  RH WIND       PRES   REMARKS
MEDFORD        CLEAR     40  20  43 E3        29.97S
WAUSAU         CLEAR     37  20  50 CALM      29.96R
MOSINEE        CLEAR     36  19  51 NE6       29.98R
MARSHFIELD     CLEAR     40  20  44 NE5       29.96R
WISC RAPIDS    CLEAR     38  15  39 NE7       29.97R
STEVENS POINT  CLEAR     30  18  61 N3        29.97R
WAUPACA        CLEAR     38  19  47 N3        29.97R
SHAWANO        CLEAR     41  25  52 NE8       29.98R
CLINTONVILLE   CLEAR     37  21  52 NE6       29.97R
$$

WIZ038-039-048-051-260600-
FOX VALLEY

CITY           SKY/WX    TMP DP  RH WIND       PRES   REMARKS
NWS GREEN BAY  CLEAR     42  29  59 NE13      29.96R
APPLETON       CLEAR     39  23  52 NE8       29.95S
OSHKOSH        CLEAR     43  25  49 NE13      29.94R
FOND DU LAC    CLEAR     40  22  48 NE13      29.93R
$$

WIZ022-050-052-260600-
EAST CENTRAL WISCONSIN

CITY           SKY/WX    TMP DP  RH WIND       PRES   REMARKS
STURGEON BAY   CLEAR     37  21  52 N10       29.99R
MANITOWOC      CLEAR     38  26  62 N9        29.94R
SHEBOYGAN      CLEAR     38  24  57 N10       29.92R
$$

LMZ563-521-522-541>543-260600-
LAKESHORE

STATION/POSITION TIME  TEMP    WIND        PRES    VSBY  WAVE
                       AIR SEA DIR/SP/G                  HT/PER
                 (UTC) (F)     (DEG/KT/KT) (MB)    (MI)  (FT/S)
SHEBOYGAN LKSHOR 0500   40      10/ 21/ 23 1014.0R
KEWAUNEE LKSHORE 0500   40      10/ 10/ 14 1013.3S
NORTHPORT PIER   0500   38     360/ 11/ 15 1015.2S
SISTER BAY LKSHO 0500   37      10/  9/ 15   N/A
CHAMBERS ISLAND  0500   38     360/ 12/ 16 1015.9R
MENOMINEE LKSHOR 0500   39      10/ 14/ 17 1015.9S
$$


USA.gov is the U.S. government's official web portal to all federal, state and local government web resources and services.